Flag for Qatar Weather past 2 weeks in Al-Jamiliyah, Qatar

Now
64 °F

Passing clouds.


Feels Like: 64 °F
Forecast: 64 / 73 °F
Wind: 9 mph from Northwest

Location: Al Udeid

Current Time: Dec 23, 2014 at 8:30:18 AM

Latest Report: Dec 23, 2014 at 7:58 AM


Visibility: N/A

Pressure: 30.09 "Hg

Humidity: 61%

Dew point: 51 °F

Location of Al-JamiliyahLocation

Historic Weather in Al-Jamiliyah — Graph

°F

Al-Jamiliyah temperature yesterday

Maximum temperature yesterday: 75 °F (at 12:58 PM)
Minimum temperature yesterday: 58 °F (at 5:58 AM)
Average temperature yesterday: 66 °F

Past Weeks' High & Low Weather Summary

 TemperatureHumidityPressure
High81 °F (Dec 15, 12:58 PM)100% (Dec 9, 6:58 AM)30.27 "Hg (Dec 9, 6:58 AM)
Low52 °F (Dec 21, 5:58 AM)26% (Dec 15, 12:58 PM)29.93 "Hg (Dec 21, 2:58 PM)
Average68 °F70%30.11 "Hg
* Reported Dec 8 6:58 AM — Dec 23 6:58 AM, Al-Jamiliyah, Weather by CustomWeather, © 2014

Note: Actual official high and low records may vary slightly from our data, if they occured in-between our weather recording intervals... More about our weather records

Advertising

Al-Jamiliyah weather history for previous 24 hours

 ConditionsComfort  
Time TempWeatherWind HumidityBarometerVisibility
6:58 AM
Dec 23
62 °FPassing clouds.9 mph64%30.08 "HgN/A
5:58 AM62 °FPassing clouds.8 mph67%30.06 "HgN/A
4:58 AM62 °FPassing clouds.9 mph70%30.02 "HgN/A
3:58 AM62 °FPassing clouds.9 mph74%30.02 "HgN/A
2:58 AM61 °FPassing clouds.9 mph76%30.02 "HgN/A
1:58 AM60 °FPassing clouds.9 mph77%30.02 "HgN/A
12:58 AM60 °FPassing clouds.10 mph75%30.02 "HgN/A
11:58 PM
Dec 22
61 °FPassing clouds.6 mph74%30.02 "HgN/A
10:58 PM62 °FSunny.8 mph72%30.02 "HgN/A
9:58 PM63 °FSunny.7 mph73%30.03 "HgN/A
5:58 PM68 °FSunny.14 mph63%30.00 "HgN/A
4:58 PM70 °FPassing clouds.16 mph60%29.98 "HgN/A
3:58 PM72 °FSunny.20 mph58%29.96 "Hg6 mi
2:58 PM74 °FSunny.20 mph58%29.94 "Hg6 mi
1:58 PM75 °FLow level haze.23 mph58%29.94 "Hg5 mi
12:58 PM75 °FPassing clouds.21 mph62%29.96 "Hg6 mi
11:58 AM74 °FPassing clouds.18 mph64%29.97 "Hg6 mi
10:58 AM73 °FHaze.17 mph66%29.98 "Hg4 mi
9:58 AM70 °FHaze.18 mph68%30.02 "Hg3 mi
8:58 AM67 °FFog.14 mph75%30.02 "Hg3 mi
Weather by CustomWeather, © 2014

See weather overviewHow to use our weather pages